{"data":{"norad_id":63881,"intl_designator":"2025-094T","name":"STARLINK-33905","alt_names":[],"object_type":"PAYLOAD","status":"ACTIVE","operator":null,"country":"US","launch_date":"2025-05-10","launch_site_code":"AFWTR","launch_vehicle":null,"mission":null,"orbit_class":"UNKNOWN","rcs_meters":null,"size_class":null,"mass_kg":null,"dimensions":null,"purposes":["comms"],"wikipedia_slug":null,"has_3d_model":false,"image_url":null,"decayed_at":null,"tle_current":{"epoch":"2026-09-20T13:52:10.939296Z","epoch_age_seconds":140323,"freshness":"FRESH","line1":"1 63881U 25094T   26263.57790439  .00008489  00000+0  29934-3 0  9997","line2":"2 63881  69.9992 100.7637 0003953 281.0189  79.0541 15.29586282 76451","mean_motion":15.29586282,"eccentricity":0.0003953,"inclination_deg":69.9992,"raan_deg":100.7637,"arg_perigee_deg":281.0189,"mean_anomaly_deg":79.0541,"bstar":0.00029934,"rev_number":7645,"period_min":94.143103723259,"perigee_km":474.33827873083,"apogee_km":479.75798809731,"semimajor_km":6855.1851334141,"source":"CELESTRAK","updated_at":"2026-09-21T09:00:35.140593Z"}}}